| time (UTC) | temp F | wind direction | speed knots | gust knots | rain 1hr in | rain 24hr in | rain mn in | humidity % | barometer mb |
| 20260507203007 | 62 | 46 | 0.9 | 3.5 | 0.00 | 0.01 | 0.01 | 75 | 1006.7 |
| 20260507202007 | 61 | 6 | 0.0 | 2.6 | 0.00 | 0.01 | 0.01 | 75 | 1006.7 |
| 20260507201006 | 61 | 1 | 0.0 | 0.9 | 0.00 | 0.01 | 0.01 | 77 | 1006.8 |
| 20260507200007 | 61 | 1 | 0.0 | 1.7 | 0.00 | 0.01 | 0.01 | 78 | 1006.9 |
| 20260507195006 | 62 | 99 | 0.9 | 3.5 | 0.00 | 0.01 | 0.01 | 77 | 1006.9 |
| 20260507194008 | 62 | 162 | 2.6 | 4.3 | 0.00 | 0.01 | 0.01 | 74 | 1006.7 |
| 20260507193009 | 62 | 169 | 3.5 | 7.0 | 0.00 | 0.01 | 0.01 | 75 | 1006.6 |
| 20260507192008 | 62 | 164 | 2.6 | 3.5 | 0.00 | 0.01 | 0.01 | 74 | 1006.6 |
| 20260507191008 | 62 | 188 | 2.6 | 5.2 | 0.00 | 0.01 | 0.01 | 75 | 1006.5 |
| 20260507190009 | 62 | 176 | 2.6 | 5.2 | 0.00 | 0.01 | 0.01 | 76 | 1006.2 |
| 20260507185008 | 62 | 145 | 2.6 | 5.2 | 0.00 | 0.01 | 0.01 | 75 | 1006.2 |
| 20260507184008 | 62 | 163 | 2.6 | 4.3 | 0.00 | 0.01 | 0.01 | 76 | 1006.1 |
| 20260507183009 | 62 | 137 | 1.7 | 3.5 | 0.00 | 0.01 | 0.01 | 75 | 1006.4 |
| 20260507182008 | 62 | 135 | 1.7 | 4.3 | 0.00 | 0.01 | 0.01 | 74 | 1006.3 |
| 20260507181008 | 62 | 135 | 0.9 | 2.6 | 0.00 | 0.01 | 0.01 | 74 | 1006.5 |
| 20260507180009 | 62 | 119 | 0.0 | 1.7 | 0.00 | 0.01 | 0.01 | 74 | 1006.4 |
| 20260507175007 | 63 | 90 | 0.0 | 1.7 | 0.00 | 0.01 | 0.01 | 75 | 1006.4 |
| 20260507174008 | 63 | 90 | 0.0 | 2.6 | 0.00 | 0.01 | 0.01 | 75 | 1006.2 |
| 20260507173010 | 63 | 135 | 0.9 | 3.5 | 0.00 | 0.01 | 0.01 | 75 | 1006.0 |
| 20260507172010 | 63 | 135 | 0.0 | 1.7 | 0.00 | 0.01 | 0.01 | 78 | 1006.0 |
| 20260507171014 | 63 | 90 | 0.0 | 1.7 | 0.00 | 0.01 | 0.01 | 74 | 1006.2 |
| 20260507170011 | 63 | 100 | 0.9 | 3.5 | 0.00 | 0.01 | 0.01 | 74 | 1006.0 |
| 20260507165011 | 64 | 106 | 0.0 | 2.6 | 0.00 | 0.01 | 0.01 | 72 | 1005.9 |
| 20260507164009 | 64 | 97 | 0.0 | 1.7 | 0.00 | 0.01 | 0.01 | 72 | 1005.9 |
| 20260507163010 | 63 | 90 | 0.0 | 1.7 | 0.00 | 0.01 | 0.01 | 71 | 1005.8 |
| 20260507162009 | 64 | 1 | 0.0 | 1.7 | 0.00 | 0.01 | 0.01 | 72 | 1006.0 |
| 20260507161009 | 64 | 336 | 0.0 | 1.7 | 0.00 | 0.01 | 0.01 | 74 | 1006.2 |
| 20260507160010 | 64 | 20 | 0.9 | 7.0 | 0.00 | 0.01 | 0.01 | 73 | 1006.1 |
| 20260507155009 | 64 | 49 | 1.7 | 7.8 | 0.00 | 0.01 | 0.01 | 79 | 1006.1 |
| 20260507154009 | 64 | 58 | 0.9 | 4.3 | 0.00 | 0.01 | 0.01 | 80 | 1006.0 |
| 20260507153009 | 64 | 266 | 0.0 | 1.7 | 0.00 | 0.01 | 0.01 | 76 | 1005.9 |
| 20260507152008 | 64 | 329 | 0.0 | 1.7 | 0.00 | 0.01 | 0.01 | 77 | 1006.0 |
| 20260507151008 | 64 | 321 | 0.0 | 1.7 | 0.00 | 0.01 | 0.01 | 79 | 1006.0 |
| 20260507150011 | 64 | 301 | 0.0 | 1.7 | 0.00 | 0.01 | 0.01 | 80 | 1005.9 |
| 20260507145008 | 63 | 270 | 0.0 | 1.7 | 0.01 | 0.01 | 0.01 | 81 | 1006.2 |
| 20260507144010 | 62 | 270 | 0.0 | 1.7 | 0.01 | 0.01 | 0.01 | 83 | 1006.1 |
| 20260507143010 | 62 | 270 | 0.0 | 1.7 | 0.01 | 0.01 | 0.01 | 85 | 1006.1 |
| 20260507142009 | 62 | 270 | 0.0 | 1.7 | 0.01 | 0.01 | 0.01 | 86 | 1006.3 |
| 20260507141009 | 63 | 262 | 0.0 | 2.6 | 0.01 | 0.01 | 0.01 | 85 | 1006.4 |
| 20260507140011 | 63 | 204 | 1.7 | 3.5 | 0.01 | 0.01 | 0.01 | 82 | 1006.4 |
| 20260507135010 | 65 | 151 | 0.9 | 2.6 | 0.00 | 0.00 | 0.00 | 75 | 1006.1 |
| 20260507134009 | 65 | 128 | 0.9 | 2.6 | 0.00 | 0.00 | 0.00 | 72 | 1006.1 |
| 20260507133010 | 65 | 123 | 2.6 | 6.1 | 0.00 | 0.00 | 0.00 | 69 | 1006.3 |
| 20260507132009 | 65 | 121 | 1.7 | 5.2 | 0.00 | 0.00 | 0.00 | 67 | 1006.4 |
| 20260507131009 | 66 | 83 | 1.7 | 7.0 | 0.00 | 0.00 | 0.00 | 67 | 1006.4 |
| 20260507130009 | 66 | 88 | 1.7 | 11.3 | 0.00 | 0.00 | 0.00 | 67 | 1006.3 |
| 20260507125008 | 67 | 69 | 2.6 | 9.6 | 0.00 | 0.00 | 0.00 | 65 | 1006.7 |
| 20260507124008 | 67 | 68 | 2.6 | 13.0 | 0.00 | 0.00 | 0.00 | 65 | 1006.5 |
| 20260507123008 | 67 | 40 | 3.5 | 13.0 | 0.00 | 0.00 | 0.00 | 67 | 1006.6 |
| 20260507122007 | 67 | 62 | 2.6 | 9.6 | 0.00 | 0.00 | 0.00 | 66 | 1006.6 |
| 20260507121007 | 67 | 54 | 2.6 | 9.6 | 0.00 | 0.00 | 0.00 | 66 | 1006.5 |
| 20260507120014 | 67 | 41 | 3.5 | 13.0 | 0.00 | 0.00 | 0.00 | 65 | 1006.3 |
| 20260507115013 | 68 | 71 | 2.6 | 7.8 | 0.00 | 0.00 | 0.00 | 65 | 1006.5 |
| 20260507114011 | 67 | 31 | 3.5 | 7.8 | 0.00 | 0.00 | 0.00 | 67 | 1006.4 |
| 20260507113007 | 67 | 22 | 2.6 | 8.7 | 0.00 | 0.00 | 0.00 | 68 | 1006.4 |
| 20260507112007 | 67 | 39 | 2.6 | 9.6 | 0.00 | 0.00 | 0.00 | 67 | 1006.5 |
| 20260507111006 | 67 | 32 | 4.3 | 10.4 | 0.00 | 0.00 | 0.00 | 69 | 1006.6 |
| 20260507110007 | 67 | 37 | 4.3 | 9.6 | 0.00 | 0.00 | 0.00 | 69 | 1006.6 |
| 20260507105007 | 67 | 38 | 3.5 | 10.4 | 0.00 | 0.00 | 0.00 | 70 | 1006.7 |
| 20260507104007 | 66 | 29 | 2.6 | 8.7 | 0.00 | 0.00 | 0.00 | 71 | 1006.7 |
| 20260507103008 | 65 | 31 | 4.3 | 10.4 | 0.00 | 0.00 | 0.00 | 73 | 1006.7 |
| 20260507102007 | 66 | 23 | 4.3 | 12.2 | 0.00 | 0.00 | 0.00 | 73 | 1006.6 |
| 20260507101006 | 66 | 34 | 5.2 | 14.8 | 0.00 | 0.00 | 0.00 | 73 | 1006.3 |
| 20260507100008 | 66 | 33 | 5.2 | 14.8 | 0.00 | 0.00 | 0.00 | 72 | 1006.4 |
| 20260507095007 | 67 | 18 | 3.5 | 13.0 | 0.00 | 0.00 | 0.00 | 73 | 1006.5 |
| 20260507094007 | 68 | 43 | 3.5 | 13.0 | 0.00 | 0.00 | 0.00 | 72 | 1006.6 |
| 20260507093007 | 67 | 36 | 3.5 | 13.0 | 0.00 | 0.00 | 0.00 | 69 | 1006.4 |
| 20260507092007 | 67 | 47 | 3.5 | 13.9 | 0.00 | 0.00 | 0.00 | 71 | 1006.4 |
| 20260507091006 | 67 | 28 | 1.7 | 7.0 | 0.00 | 0.00 | 0.00 | 68 | 1006.4 |
| 20260507090007 | 68 | 43 | 1.7 | 10.4 | 0.00 | 0.00 | 0.00 | 67 | 1006.3 |
| 20260507085008 | 69 | 52 | 2.6 | 9.6 | 0.00 | 0.00 | 0.00 | 66 | 1006.2 |
| 20260507084007 | 68 | 73 | 2.6 | 8.7 | 0.00 | 0.00 | 0.00 | 67 | 1006.3 |
| 20260507083008 | 68 | 90 | 1.7 | 8.7 | 0.00 | 0.00 | 0.00 | 68 | 1006.7 |
| 20260507082007 | 68 | 80 | 0.9 | 6.1 | 0.00 | 0.00 | 0.00 | 67 | 1006.2 |
| 20260507081007 | 65 | 91 | 2.6 | 9.6 | 0.00 | 0.00 | 0.00 | 71 | 1006.3 |
| 20260507080008 | 66 | 107 | 0.9 | 6.1 | 0.00 | 0.00 | 0.00 | 71 | 1006.4 |
| 20260507075006 | 65 | 357 | 0.9 | 2.6 | 0.00 | 0.00 | 0.00 | 72 | 1006.3 |
| 20260507074007 | 64 | 342 | 1.7 | 4.3 | 0.00 | 0.00 | 0.00 | 73 | 1006.3 |
| 20260507073008 | 64 | 334 | 0.9 | 7.0 | 0.00 | 0.00 | 0.00 | 73 | 1006.4 |
| 20260507072007 | 64 | 1 | 1.7 | 6.1 | 0.00 | 0.00 | 0.00 | 73 | 1006.3 |
| 20260507071007 | 64 | 306 | 2.6 | 8.7 | 0.00 | 0.00 | 0.00 | 74 | 1006.3 |
| 20260507070012 | 64 | 317 | 2.6 | 9.6 | 0.00 | 0.00 | 0.00 | 73 | 1006.2 |
| 20260507065006 | 63 | 274 | 1.7 | 7.0 | 0.00 | 0.00 | 0.00 | 73 | 1006.3 |
| 20260507064007 | 63 | 257 | 0.9 | 4.3 | 0.00 | 0.00 | 0.00 | 73 | 1006.5 |
| 20260507063007 | 62 | 250 | 0.9 | 4.3 | 0.00 | 0.00 | 0.00 | 73 | 1006.4 |
| 20260507062006 | 62 | 247 | 1.7 | 4.3 | 0.00 | 0.00 | 0.00 | 73 | 1006.3 |
| 20260507061006 | 62 | 270 | 0.9 | 3.5 | 0.00 | 0.00 | 0.00 | 73 | 1006.4 |
| 20260507060007 | 61 | 273 | 0.9 | 3.5 | 0.00 | 0.00 | 0.00 | 74 | 1006.4 |
| 20260507055006 | 61 | 282 | 1.7 | 4.3 | 0.00 | 0.00 | 0.00 | 72 | 1006.4 |
| 20260507054006 | 61 | 332 | 1.7 | 5.2 | 0.00 | 0.00 | 0.00 | 72 | 1006.0 |
| 20260507053007 | 62 | 359 | 1.7 | 6.1 | 0.00 | 0.00 | 0.00 | 71 | 1006.2 |
| 20260507052007 | 62 | 336 | 1.7 | 7.0 | 0.00 | 0.00 | 0.00 | 69 | 1005.7 |
| 20260507051006 | 61 | 199 | 0.0 | 4.3 | 0.00 | 0.00 | 0.00 | 69 | 1005.7 |
| 20260507050007 | 61 | 206 | 0.9 | 3.5 | 0.00 | 0.00 | 0.00 | 70 | 1005.5 |
| 20260507045006 | 61 | 234 | 0.9 | 3.5 | 0.00 | 0.00 | 0.00 | 71 | 1005.3 |
| 20260507044006 | 61 | 1 | 0.0 | 2.6 | 0.00 | 0.00 | 0.00 | 70 | 1004.9 |
| 20260507043006 | 62 | 1 | 0.0 | 2.6 | 0.00 | 0.00 | 0.00 | 69 | 1005.1 |
| 20260507042006 | 62 | 1 | 0.0 | 1.7 | 0.00 | 0.00 | 0.00 | 69 | 1004.7 |
| 20260507041007 | 62 | 1 | 0.0 | 1.7 | 0.00 | 0.00 | 0.00 | 69 | 1004.7 |
| 20260507040007 | 62 | 319 | 0.9 | 2.6 | 0.00 | 0.00 | 0.00 | 67 | 1004.8 |
| 20260507035007 | 62 | 317 | 0.9 | 3.5 | 0.00 | 0.00 | 0.00 | 67 | 1004.5 |
| 20260507034006 | 62 | 250 | 0.9 | 3.5 | 0.00 | 0.00 | 0.00 | 67 | 1004.5 |
| 20260507033006 | 62 | 244 | 0.9 | 2.6 | 0.00 | 0.00 | 0.00 | 67 | 1004.5 |
| 20260507032006 | 62 | 257 | 0.0 | 2.6 | 0.00 | 0.00 | 0.00 | 67 | 1004.3 |
| 20260507031006 | 62 | 283 | 1.7 | 7.0 | 0.00 | 0.00 | 0.00 | 67 | 1004.3 |
| 20260507030007 | 62 | 353 | 0.9 | 5.2 | 0.00 | 0.00 | 0.00 | 66 | 1004.3 |
| 20260507025007 | 62 | 289 | 1.7 | 5.2 | 0.00 | 0.00 | 0.00 | 66 | 1004.4 |
| 20260507024006 | 62 | 282 | 2.6 | 7.0 | 0.00 | 0.00 | 0.00 | 65 | 1004.4 |
| 20260507023007 | 62 | 211 | 2.6 | 7.0 | 0.00 | 0.00 | 0.00 | 65 | 1004.4 |
| 20260507022006 | 61 | 234 | 1.7 | 6.1 | 0.00 | 0.00 | 0.00 | 67 | 1004.0 |
| 20260507021006 | 62 | 191 | 0.9 | 3.5 | 0.00 | 0.00 | 0.00 | 67 | 1003.9 |
| 20260507020006 | 62 | 112 | 0.9 | 2.6 | 0.00 | 0.00 | 0.00 | 65 | 1003.8 |
| 20260507015007 | 62 | 135 | 1.7 | 3.5 | 0.00 | 0.00 | 0.00 | 65 | 1003.8 |
| 20260507014007 | 61 | 154 | 1.7 | 4.3 | 0.00 | 0.00 | 0.00 | 68 | 1003.6 |
| 20260507013007 | 60 | 182 | 1.7 | 4.3 | 0.00 | 0.00 | 0.00 | 70 | 1003.3 |
| 20260507012006 | 60 | 140 | 0.9 | 3.5 | 0.00 | 0.00 | 0.00 | 69 | 1003.3 |
| 20260507011006 | 60 | 215 | 0.0 | 1.7 | 0.00 | 0.00 | 0.00 | 69 | 1003.4 |
| 20260507010007 | 62 | 333 | 0.9 | 3.5 | 0.00 | 0.00 | 0.00 | 67 | 1003.1 |
| 20260507005006 | 63 | 6 | 1.7 | 7.0 | 0.00 | 0.00 | 0.00 | 64 | 1003.0 |
| 20260507004006 | 63 | 354 | 1.7 | 7.0 | 0.00 | 0.00 | 0.00 | 62 | 1002.9 |
| 20260507003007 | 64 | 309 | 1.7 | 7.0 | 0.00 | 0.00 | 0.00 | 58 | 1003.1 |
| 20260507002007 | 64 | 170 | 1.7 | 9.6 | 0.00 | 0.00 | 0.00 | 59 | 1003.2 |
| 20260507001007 | 64 | 135 | 3.5 | 12.2 | 0.00 | 0.00 | 0.00 | 58 | 1003.2 |
| 20260507000007 | 65 | 120 | 5.2 | 15.6 | 0.00 | 0.00 | 0.00 | 58 | 1003.2 |
| 20260506235006 | 65 | 37 | 1.7 | 9.6 | 0.00 | 0.00 | 0.00 | 58 | 1003.5 |
| 20260506234006 | 65 | 247 | 5.2 | 19.1 | 0.00 | 0.00 | 0.00 | 59 | 1003.3 |
| 20260506233006 | 65 | 195 | 7.8 | 28.7 | 0.00 | 0.00 | 0.00 | 58 | 1003.3 |
| 20260506232007 | 66 | 226 | 7.0 | 19.1 | 0.00 | 0.00 | 0.00 | 57 | 1003.4 |
| 20260506231007 | 66 | 184 | 8.7 | 20.9 | 0.00 | 0.00 | 0.00 | 57 | 1003.6 |
| 20260506230008 | 66 | 202 | 10.4 | 20.0 | 0.00 | 0.00 | 0.00 | 56 | 1003.2 |
| 20260506225006 | 66 | 191 | 10.4 | 24.3 | 0.00 | 0.00 | 0.00 | 55 | 1003.5 |
| 20260506224007 | 64 | 163 | 10.4 | 24.3 | 0.00 | 0.00 | 0.00 | 54 | 1003.5 |
| 20260506223008 | 64 | 162 | 10.4 | 22.6 | 0.00 | 0.00 | 0.00 | 56 | 1003.7 |
| 20260506222007 | 65 | 162 | 13.0 | 28.7 | 0.00 | 0.00 | 0.00 | 55 | 1003.8 |
| 20260506221007 | 65 | 195 | 13.9 | 30.4 | 0.00 | 0.00 | 0.00 | 51 | 1003.6 |
| 20260506220011 | 65 | 169 | 15.6 | 31.3 | 0.00 | 0.00 | 0.00 | 53 | 1003.8 |
| 20260506215007 | 65 | 189 | 15.6 | 26.1 | 0.00 | 0.00 | 0.00 | 53 | 1003.8 |
| 20260506214007 | 65 | 184 | 14.8 | 26.1 | 0.00 | 0.00 | 0.00 | 53 | 1003.6 |
| 20260506213007 | 66 | 196 | 13.0 | 26.9 | 0.00 | 0.00 | 0.00 | 54 | 1003.8 |
| 20260506212007 | 66 | 194 | 14.8 | 28.7 | 0.00 | 0.00 | 0.00 | 54 | 1003.8 |
| 20260506211007 | 65 | 193 | 11.3 | 23.5 | 0.00 | 0.00 | 0.00 | 54 | 1003.9 |
| 20260506210008 | 65 | 193 | 14.8 | 26.1 | 0.00 | 0.00 | 0.00 | 55 | 1004.0 |
| 20260506205007 | 65 | 179 | 16.5 | 31.3 | 0.00 | 0.00 | 0.00 | 56 | 1004.0 |
| 20260506204007 | 65 | 213 | 18.2 | 34.8 | 0.00 | 0.00 | 0.00 | 58 | 1004.2 |